This is the latest recevied weather packets stored in our database for station/object 4S6DRJ-13. If no packets are shown the sender has not sent any weather packets the latest 1 day(s).
| Time | Temp. | Humidity | Pressure | Rain* | Wind** | Luminosity | Snow |
|---|---|---|---|---|---|---|---|
| 1778167315 | 28.33° C | 84% | 1005.2 hPa | 0 mm | 1.34 m/s, 123° | 0 W/m² | - |
| 1778167254 | 28.33° C | 84% | 1005.4 hPa | 0 mm | 1.79 m/s, 175° | 0 W/m² | - |
| 1778167193 | 28.33° C | 84% | 1005.2 hPa | 0 mm | 1.34 m/s, 123° | 0 W/m² | - |
| 1778167132 | 28.33° C | 84% | 1005.1 hPa | 0 mm | 2.24 m/s, 134° | 0 W/m² | - |
| 1778167010 | 28.33° C | 84% | 1005 hPa | 0 mm | 0.89 m/s, 137° | 0 W/m² | - |
| 1778166888 | 28.33° C | 84% | 1005.2 hPa | 0 mm | 1.79 m/s, 127° | 0 W/m² | - |
| 1778166583 | 28.33° C | 84% | 1005 hPa | 0 mm | 1.34 m/s, 109° | 0 W/m² | - |
| 1778166461 | 28.33° C | 84% | 1004.9 hPa | 0 mm | 1.34 m/s, 135° | 0 W/m² | - |
| 1778166339 | 28.33° C | 83% | 1005 hPa | 0 mm | 1.79 m/s, 131° | 0 W/m² | - |
| 1778166278 | 28.33° C | 84% | 1004.9 hPa | 0 mm | 1.34 m/s, 177° | 0 W/m² | - |
| 1778166217 | 28.33° C | 83% | 1004.8 hPa | 0 mm | 0.89 m/s, 125° | 0 W/m² | - |
| 1778166095 | 28.33° C | 83% | 1005.1 hPa | 0 mm | 0.89 m/s, 123° | 0 W/m² | - |
| 1778165973 | 28.33° C | 83% | 1005 hPa | 0 mm | 0.45 m/s, 97° | 0 W/m² | - |
| 1778165912 | 28.33° C | 83% | 1005.1 hPa | 0 mm | 1.34 m/s, 94° | 0 W/m² | - |
| 1778165729 | 28.33° C | 83% | 1005.1 hPa | 0 mm | 0.45 m/s, 108° | 0 W/m² | - |
| 1778165668 | 28.33° C | 83% | 1005.1 hPa | 0 mm | 0.45 m/s, 109° | 0 W/m² | - |
| 1778165546 | 28.33° C | 83% | 1004.7 hPa | 0 mm | 0.89 m/s, 87° | 0 W/m² | - |
| 1778165485 | 28.33° C | 83% | 1005 hPa | 0 mm | 0.45 m/s, 97° | 0 W/m² | - |
| 1778165364 | 28.33° C | 82% | 1005 hPa | 0 mm | 0.89 m/s, 137° | 0 W/m² | - |
| 1778165058 | 28.89° C | 82% | 1004.8 hPa | 0 mm | 0.89 m/s, 70° | 0 W/m² | - |
| 1778164875 | 28.89° C | 81% | 1005.1 hPa | 0 mm | 0.89 m/s, 84° | 0 W/m² | - |
| 1778164448 | 28.89° C | 80% | 1005 hPa | 0 mm | 0.45 m/s, 50° | 0 W/m² | - |
| 1778164327 | 29.44° C | 79% | 1004.9 hPa | 0 mm | 0.89 m/s, 98° | 0 W/m² | - |
| 1778163899 | 29.44° C | 78% | 1004.7 hPa | 0 mm | 0.45 m/s, 160° | 0 W/m² | - |
| 1778163838 | 29.44° C | 78% | 1004.7 hPa | 0 mm | 0.45 m/s, 105° | 0 W/m² | - |
* Rain latest hour (hover to see other rain measurements)
** Current wind speed in m/s (hover to see current wind gust speed)